UAL7817 KSFO-PHKO

Flight info

Callsign UAL7817
Flight time 5h 28m
Altitude 34000
Route GNNRR3 BEBOP R464 BARAZ/N0459F360 R464 BITTA ONOHI VECKI9
Aircraft B739/M-SDE2E3FGHIRWXY/LB1

Departure

Time 2026-04-22 23:09
Airport San Francisco International Airport (KSFO)

Arrival

Time 2026-04-23 04:38
Airport Ellison Onizuka Kona International Airport at Keāhole (PHKO)
Time Latitude Longitude Altitude Speed Heading
2026-04-22 22:42 37.61823 -122.38813 33 ft 0 kts 131°
2026-04-22 22:57 37.61826 -122.38818 33 ft 1 kts 113°
2026-04-22 22:57 37.61829 -122.38835 33 ft 2 kts 102°
2026-04-22 22:57 37.61833 -122.38854 33 ft 2 kts 109°
2026-04-22 22:57 37.61838 -122.38871 33 ft 2 kts 106°
2026-04-22 22:58 37.61842 -122.38889 33 ft 2 kts 107°
2026-04-22 22:58 37.61846 -122.38908 33 ft 2 kts 107°
2026-04-22 22:58 37.61850 -122.38926 33 ft 2 kts 107°
2026-04-22 22:58 37.61855 -122.38944 33 ft 2 kts 107°
2026-04-22 22:59 37.61859 -122.38963 33 ft 2 kts 107°
2026-04-22 22:59 37.61862 -122.38972 32 ft 0 kts 118°
2026-04-22 23:01 37.61861 -122.38972 32 ft 0 kts 117°
2026-04-22 23:01 37.61862 -122.38949 33 ft 6 kts 64°
2026-04-22 23:01 37.61913 -122.38946 32 ft 10 kts 322°
2026-04-22 23:01 37.61970 -122.39048 32 ft 16 kts 298°
2026-04-22 23:02 37.62022 -122.39170 31 ft 15 kts 301°
2026-04-22 23:02 37.62108 -122.39183 30 ft 13 kts 24°
2026-04-22 23:02 37.62199 -122.39122 29 ft 16 kts 30°
2026-04-22 23:02 37.62251 -122.38999 29 ft 16 kts 75°
2026-04-22 23:03 37.62246 -122.38874 29 ft 14 kts 116°
2026-04-22 23:03 37.62198 -122.38755 30 ft 16 kts 118°
2026-04-22 23:03 37.62139 -122.38615 31 ft 19 kts 118°
2026-04-22 23:03 37.62075 -122.38463 31 ft 20 kts 118°
2026-04-22 23:04 37.62011 -122.38309 31 ft 20 kts 118°
2026-04-22 23:04 37.61945 -122.38152 31 ft 19 kts 118°
2026-04-22 23:04 37.61882 -122.38000 30 ft 19 kts 116°
2026-04-22 23:04 37.61822 -122.37841 28 ft 20 kts 113°
2026-04-22 23:05 37.61766 -122.37661 25 ft 21 kts 110°
2026-04-22 23:05 37.61708 -122.37492 22 ft 20 kts 117°
2026-04-22 23:05 37.61644 -122.37336 20 ft 19 kts 117°
2026-04-22 23:05 37.61582 -122.37185 18 ft 18 kts 118°
2026-04-22 23:06 37.61518 -122.37035 16 ft 19 kts 118°
2026-04-22 23:06 37.61445 -122.36893 14 ft 18 kts 132°
2026-04-22 23:06 37.61359 -122.36760 13 ft 20 kts 120°
2026-04-22 23:06 37.61290 -122.36599 13 ft 20 kts 118°
2026-04-22 23:07 37.61227 -122.36451 12 ft 18 kts 118°
2026-04-22 23:07 37.61164 -122.36301 12 ft 19 kts 118°
2026-04-22 23:07 37.61101 -122.36149 12 ft 20 kts 116°
2026-04-22 23:07 37.61055 -122.35985 11 ft 18 kts 82°
2026-04-22 23:08 37.61140 -122.35887 11 ft 16 kts
2026-04-22 23:08 37.61241 -122.35996 12 ft 37 kts 298°
2026-04-22 23:08 37.61460 -122.36521 13 ft 94 kts 297°
2026-04-22 23:08 37.61843 -122.37435 22 ft 140 kts 298°
2026-04-22 23:09 37.62365 -122.38679 59 ft 176 kts 298°
2026-04-22 23:09 37.62944 -122.39983 569 ft 174 kts 300°
2026-04-22 23:09 37.63559 -122.41341 1002 ft 182 kts 299°
2026-04-22 23:09 37.64209 -122.42806 1354 ft 197 kts 300°
2026-04-22 23:10 37.64870 -122.44364 1751 ft 206 kts 298°
2026-04-22 23:10 37.65566 -122.46041 1964 ft 224 kts 302°
2026-04-22 23:10 37.66426 -122.47739 2286 ft 237 kts 301°
2026-04-22 23:10 37.67076 -122.49720 2562 ft 254 kts 284°
2026-04-22 23:11 37.67161 -122.52017 2973 ft 264 kts 261°
2026-04-22 23:11 37.66649 -122.54247 3542 ft 266 kts 251°
2026-04-22 23:11 37.66004 -122.56432 4108 ft 268 kts 251°
2026-04-22 23:11 37.65367 -122.58665 4672 ft 270 kts 252°
2026-04-22 23:12 37.64769 -122.60902 5216 ft 272 kts 253°
2026-04-22 23:12 37.64180 -122.63174 5751 ft 274 kts 254°
2026-04-22 23:12 37.63588 -122.65475 6311 ft 276 kts 253°
2026-04-22 23:12 37.62992 -122.67783 6956 ft 276 kts 253°
2026-04-22 23:13 37.62395 -122.70081 7520 ft 278 kts 253°
2026-04-22 23:13 37.61783 -122.72424 8102 ft 280 kts 254°
2026-04-22 23:13 37.61180 -122.74717 8676 ft 281 kts 254°
2026-04-22 23:13 37.60560 -122.77077 9271 ft 282 kts 254°
2026-04-22 23:14 37.59943 -122.79433 9834 ft 284 kts 254°
2026-04-22 23:14 37.59311 -122.81853 10324 ft 290 kts 255°
2026-04-22 23:14 37.58668 -122.84326 10598 ft 303 kts 255°
2026-04-22 23:14 37.58003 -122.86881 11096 ft 308 kts 255°
2026-04-22 23:15 37.57324 -122.89476 11739 ft 308 kts 255°
2026-04-22 23:15 37.56659 -122.92011 12348 ft 309 kts 255°
2026-04-22 23:15 37.55981 -122.94597 12940 ft 311 kts 256°
2026-04-22 23:15 37.55298 -122.97205 13583 ft 311 kts 256°
2026-04-22 23:16 37.54628 -122.99758 14216 ft 311 kts 256°
2026-04-22 23:16 37.53948 -123.02357 14812 ft 313 kts 256°
2026-04-22 23:16 37.53262 -123.04977 15446 ft 313 kts 256°
2026-04-22 23:16 37.52575 -123.07588 16015 ft 315 kts 256°
2026-04-22 23:17 37.51898 -123.10157 16627 ft 314 kts 256°
2026-04-22 23:17 37.51201 -123.12802 17171 ft 316 kts 256°
2026-04-22 23:17 37.50512 -123.15408 17767 ft 316 kts 256°
2026-04-22 23:17 37.49821 -123.18018 18299 ft 317 kts 256°
2026-04-22 23:18 37.49122 -123.20667 18807 ft 319 kts 256°
2026-04-22 23:18 37.48428 -123.23294 19289 ft 321 kts 256°
2026-04-22 23:18 37.47716 -123.25974 19784 ft 322 kts 256°
2026-04-22 23:18 37.47009 -123.28641 20250 ft 324 kts 256°
2026-04-22 23:19 37.46298 -123.31319 20700 ft 326 kts 256°
2026-04-22 23:19 37.45579 -123.34026 21182 ft 326 kts 256°
2026-04-22 23:19 37.44857 -123.36739 21612 ft 329 kts 256°
2026-04-22 23:19 37.44128 -123.39481 22027 ft 330 kts 256°
2026-04-22 23:20 37.43411 -123.42171 22492 ft 330 kts 256°
2026-04-22 23:20 37.42669 -123.44949 22849 ft 333 kts 256°
2026-04-22 23:20 37.41937 -123.47692 23258 ft 334 kts 256°
2026-04-22 23:20 37.41197 -123.50461 23628 ft 336 kts 256°
2026-04-22 23:21 37.40442 -123.53278 24029 ft 337 kts 256°
2026-04-22 23:21 37.39698 -123.56050 24460 ft 337 kts 256°
2026-04-22 23:21 37.38942 -123.58866 24874 ft 336 kts 256°
2026-04-22 23:21 37.38195 -123.61644 25240 ft 337 kts 256°
2026-04-22 23:22 37.37445 -123.64437 25592 ft 339 kts 256°
2026-04-22 23:22 37.36691 -123.67242 25942 ft 340 kts 256°
2026-04-22 23:22 37.35932 -123.70055 26307 ft 341 kts 255°
2026-04-22 23:22 37.35173 -123.72865 26715 ft 340 kts 256°
2026-04-22 23:23 37.34416 -123.75665 27056 ft 341 kts 255°
2026-04-22 23:23 37.33645 -123.78519 27370 ft 343 kts 256°
2026-04-22 23:23 37.32877 -123.81358 27636 ft 345 kts 255°
2026-04-22 23:23 37.32100 -123.84221 28055 ft 344 kts 256°
2026-04-22 23:24 37.31325 -123.87076 28307 ft 346 kts 256°
2026-04-22 23:24 37.30544 -123.89956 28585 ft 347 kts 255°
2026-04-22 23:24 37.29756 -123.92855 28971 ft 346 kts 256°
2026-04-22 23:24 37.28983 -123.95698 29232 ft 348 kts 256°
2026-04-22 23:25 37.28197 -123.98583 29514 ft 348 kts 255°
2026-04-22 23:25 37.27420 -124.01427 29853 ft 347 kts 256°
2026-04-22 23:25 37.26635 -124.04306 30058 ft 350 kts 256°
2026-04-22 23:25 37.25837 -124.07231 30359 ft 350 kts 256°
2026-04-22 23:26 37.25043 -124.10139 30578 ft 352 kts 256°
2026-04-22 23:26 37.24251 -124.13026 30863 ft 352 kts 255°
2026-04-22 23:26 37.23458 -124.15918 31097 ft 353 kts 256°
2026-04-22 23:26 37.22658 -124.18831 31271 ft 356 kts 256°
2026-04-22 23:27 37.21847 -124.21781 31564 ft 356 kts 256°
2026-04-22 23:27 37.21039 -124.24715 31770 ft 357 kts 256°
2026-04-22 23:27 37.20235 -124.27633 32001 ft 358 kts 256°
2026-04-22 23:27 37.19410 -124.30626 32171 ft 360 kts 256°
2026-04-22 23:28 37.18594 -124.33582 32428 ft 360 kts 256°
2026-04-22 23:28 37.17771 -124.36565 32566 ft 363 kts 256°
2026-04-22 23:28 37.16945 -124.39550 32816 ft 363 kts 256°
2026-04-22 23:28 37.16124 -124.42512 33031 ft 363 kts 256°
2026-04-22 23:29 37.15287 -124.45528 33188 ft 365 kts 256°
2026-04-22 23:29 37.14453 -124.48530 33430 ft 365 kts 256°
2026-04-22 23:29 37.13614 -124.51550 33537 ft 368 kts 255°
2026-04-22 23:29 37.12780 -124.54550 33768 ft 368 kts 256°
2026-04-22 23:30 37.11928 -124.57610 33909 ft 370 kts 255°
2026-04-22 23:30 37.11076 -124.60660 34123 ft 370 kts 256°
2026-04-22 23:30 37.09369 -124.66774 34224 ft 374 kts 255°
2026-04-22 23:31 37.07659 -124.72880 34231 ft 373 kts 255°
2026-04-22 23:31 37.05946 -124.78978 34232 ft 370 kts 255°
2026-04-22 23:32 37.04237 -124.85057 34232 ft 372 kts 255°
2026-04-22 23:32 37.02517 -124.91161 34234 ft 372 kts 255°
2026-04-22 23:33 37.00809 -124.97201 34233 ft 371 kts 255°
2026-04-22 23:33 36.99095 -125.03320 34239 ft 372 kts 256°
2026-04-22 23:34 36.97452 -125.09431 34233 ft 372 kts 256°
2026-04-22 23:34 36.95811 -125.15569 34229 ft 372 kts 256°
2026-04-22 23:35 36.94164 -125.21688 34239 ft 372 kts 255°
2026-04-22 23:35 36.92516 -125.27778 34244 ft 371 kts 255°
2026-04-22 23:36 36.90857 -125.33895 34239 ft 372 kts 255°
2026-04-22 23:36 36.89186 -125.40037 34243 ft 373 kts 256°
2026-04-22 23:37 36.87522 -125.46130 34245 ft 372 kts 256°
2026-04-22 23:37 36.85858 -125.52220 34245 ft 373 kts 255°
2026-04-22 23:38 36.84663 -125.56583 34245 ft 372 kts 255°
2026-04-22 23:38 36.83028 -125.62530 34245 ft 373 kts 255°
2026-04-22 23:39 36.81349 -125.68626 34240 ft 372 kts 255°
2026-04-22 23:39 36.79661 -125.74752 34242 ft 373 kts 255°
2026-04-22 23:40 36.77964 -125.80890 34241 ft 374 kts 255°
2026-04-22 23:40 36.76267 -125.87016 34243 ft 373 kts 255°
2026-04-22 23:41 36.74577 -125.93098 34235 ft 373 kts 254°
2026-04-22 23:41 36.72868 -125.99236 34234 ft 374 kts 255°
2026-04-22 23:42 36.71173 -126.05315 34235 ft 375 kts 255°
2026-04-22 23:42 36.69458 -126.11448 34236 ft 373 kts 255°
2026-04-22 23:43 36.67741 -126.17571 34237 ft 374 kts 255°
2026-04-22 23:43 36.66027 -126.23681 34237 ft 374 kts 255°
2026-04-22 23:44 36.64307 -126.29786 34242 ft 373 kts 255°
2026-04-22 23:44 36.62587 -126.35886 34238 ft 375 kts 255°
2026-04-22 23:45 36.60864 -126.41975 34239 ft 374 kts 255°
2026-04-22 23:45 36.59138 -126.48064 34242 ft 374 kts 255°
2026-04-22 23:46 36.57396 -126.54195 34246 ft 374 kts 255°
2026-04-22 23:46 36.55662 -126.60282 34250 ft 375 kts 255°
2026-04-22 23:47 36.53917 -126.66396 34253 ft 375 kts 254°
2026-04-22 23:47 36.52179 -126.72465 34251 ft 374 kts 254°
2026-04-22 23:48 36.50426 -126.78580 34254 ft 375 kts 254°
2026-04-22 23:48 36.48672 -126.84686 34256 ft 375 kts 254°
2026-04-22 23:49 36.46917 -126.90778 34254 ft 376 kts 254°
2026-04-22 23:49 36.45148 -126.96915 34255 ft 377 kts 254°
2026-04-22 23:50 36.43387 -127.02996 34253 ft 375 kts 254°
2026-04-22 23:50 36.41625 -127.09068 34255 ft 376 kts 254°
2026-04-22 23:51 36.39848 -127.15181 34256 ft 375 kts 254°
2026-04-22 23:51 36.38073 -127.21262 34254 ft 376 kts 254°
2026-04-22 23:52 36.36286 -127.27382 34254 ft 377 kts 254°
2026-04-22 23:52 36.34498 -127.33486 34255 ft 377 kts 254°
2026-04-22 23:53 36.32708 -127.39582 34288 ft 375 kts 254°
2026-04-22 23:53 36.30909 -127.45709 34278 ft 378 kts 254°
2026-04-22 23:54 36.29112 -127.51804 34254 ft 376 kts 254°
2026-04-22 23:54 36.27306 -127.57911 34250 ft 377 kts 254°
2026-04-22 23:55 36.25498 -127.64018 34256 ft 378 kts 253°
2026-04-22 23:55 36.23696 -127.70084 34258 ft 378 kts 253°
2026-04-22 23:56 36.21875 -127.76204 34253 ft 380 kts 253°
2026-04-22 23:56 36.20036 -127.82367 34256 ft 380 kts 253°
2026-04-22 23:57 36.18211 -127.88474 34256 ft 380 kts 253°
2026-04-22 23:57 36.16376 -127.94595 34259 ft 381 kts 253°
2026-04-22 23:58 36.14533 -128.00749 34272 ft 382 kts 253°
2026-04-22 23:58 36.12676 -128.06931 34265 ft 380 kts 253°
2026-04-22 23:59 36.10833 -128.13042 34255 ft 381 kts 252°
2026-04-22 23:59 36.08977 -128.19200 34250 ft 382 kts 252°
2026-04-23 00:00 36.06488 -128.27418 34256 ft 379 kts 252°
2026-04-23 00:01 36.04328 -128.34534 34252 ft 382 kts 252°
2026-04-23 00:01 36.02464 -128.40660 34254 ft 381 kts 252°
2026-04-23 00:02 36.00586 -128.46822 34255 ft 382 kts 252°
2026-04-23 00:02 35.98709 -128.52965 34264 ft 381 kts 252°
2026-04-23 00:03 35.96834 -128.59087 34272 ft 380 kts 252°
2026-04-23 00:03 35.94967 -128.65157 34277 ft 379 kts 252°
2026-04-23 00:04 35.93081 -128.71292 34276 ft 382 kts 252°
2026-04-23 00:04 35.91202 -128.77390 34276 ft 380 kts 251°
2026-04-23 00:05 35.89334 -128.83440 34277 ft 381 kts 252°
2026-04-23 00:05 35.87436 -128.89571 34275 ft 382 kts 251°
2026-04-23 00:06 35.85544 -128.95662 34275 ft 383 kts 251°
2026-04-23 00:06 35.83641 -129.01785 34270 ft 384 kts 251°
2026-04-23 00:07 35.81740 -129.07889 34262 ft 385 kts 251°
2026-04-23 00:07 35.79809 -129.14069 34259 ft 385 kts 251°
2026-04-23 00:08 35.77884 -129.20221 34256 ft 386 kts 251°
2026-04-23 00:08 35.75970 -129.26331 34258 ft 385 kts 251°
2026-04-23 00:09 35.74037 -129.32501 34256 ft 386 kts 251°
2026-04-23 00:09 35.72105 -129.38654 34255 ft 386 kts 251°
2026-04-23 00:10 35.70168 -129.44785 34256 ft 385 kts 251°
2026-04-23 00:10 35.68233 -129.50897 34256 ft 386 kts 251°
2026-04-23 00:11 35.66283 -129.57045 34253 ft 387 kts 251°
2026-04-23 00:11 35.64328 -129.63202 34256 ft 386 kts 251°
2026-04-23 00:12 35.62380 -129.69344 34253 ft 388 kts 251°
2026-04-23 00:12 35.60418 -129.75491 34258 ft 388 kts 250°
2026-04-23 00:13 35.58446 -129.81645 34254 ft 389 kts 250°
2026-04-23 00:13 35.56461 -129.87833 34257 ft 389 kts 250°
2026-04-23 00:14 35.54490 -129.93986 34256 ft 389 kts 250°
2026-04-23 00:14 35.52514 -130.00125 34258 ft 387 kts 251°
2026-04-23 00:15 35.50541 -130.06255 34259 ft 389 kts 251°
2026-04-23 00:15 35.48554 -130.12416 34255 ft 388 kts 250°
2026-04-23 00:16 35.46560 -130.18584 34255 ft 389 kts 250°
2026-04-23 00:16 35.44574 -130.24709 34257 ft 389 kts 250°
2026-04-23 00:17 35.42573 -130.30862 34257 ft 389 kts 251°
2026-04-23 00:17 35.40579 -130.36986 34257 ft 390 kts 250°
2026-04-23 00:18 35.38567 -130.43156 34258 ft 390 kts 250°
2026-04-23 00:18 35.36561 -130.49295 34257 ft 391 kts 251°
2026-04-23 00:19 35.34533 -130.55495 34258 ft 392 kts 250°
2026-04-23 00:19 35.32517 -130.61649 34257 ft 392 kts 250°
2026-04-23 00:20 35.30474 -130.67850 34254 ft 392 kts 250°
2026-04-23 00:20 35.28450 -130.73990 34262 ft 392 kts 249°
2026-04-23 00:21 35.26414 -130.80151 34272 ft 393 kts 250°
2026-04-23 00:21 35.24372 -130.86327 34275 ft 393 kts 250°
2026-04-23 00:22 35.22323 -130.92513 34273 ft 393 kts 250°
2026-04-23 00:22 35.20272 -130.98682 34276 ft 394 kts 250°
2026-04-23 00:23 35.18206 -131.04886 34275 ft 392 kts 250°
2026-04-23 00:23 35.16155 -131.11032 34279 ft 392 kts 249°
2026-04-23 00:24 35.14103 -131.17174 34276 ft 393 kts 249°
2026-04-23 00:24 35.12028 -131.23366 34274 ft 392 kts 249°
2026-04-23 00:25 35.09971 -131.29504 34277 ft 393 kts 249°
2026-04-23 00:25 35.07902 -131.35661 34276 ft 393 kts 249°
2026-04-23 00:26 35.05833 -131.41801 34274 ft 394 kts 249°
2026-04-23 00:26 35.03746 -131.47983 34275 ft 393 kts 249°
2026-04-23 00:27 35.01660 -131.54138 34274 ft 394 kts 249°
2026-04-23 00:27 34.99585 -131.60271 34278 ft 393 kts 250°
2026-04-23 00:28 34.97497 -131.66419 34278 ft 394 kts 249°
2026-04-23 00:28 34.95398 -131.72580 34275 ft 394 kts 249°
2026-04-23 00:29 34.93290 -131.78754 34275 ft 395 kts 249°
2026-04-23 00:29 34.91190 -131.84904 34275 ft 394 kts 249°
2026-04-23 00:30 34.89085 -131.91048 34274 ft 393 kts 249°
2026-04-23 00:30 34.86973 -131.97201 34273 ft 394 kts 249°
2026-04-23 00:31 34.84862 -132.03345 34272 ft 396 kts 249°
2026-04-23 00:31 34.82738 -132.09517 34272 ft 395 kts 249°
2026-04-23 00:32 34.80610 -132.15683 34273 ft 396 kts 249°
2026-04-23 00:32 34.78484 -132.21834 34268 ft 395 kts 249°
2026-04-23 00:33 34.76340 -132.28018 34261 ft 396 kts 249°
2026-04-23 00:33 34.74206 -132.34163 34263 ft 395 kts 249°
2026-04-23 00:34 34.72080 -132.40276 34261 ft 395 kts 248°
2026-04-23 00:34 34.69949 -132.46388 34262 ft 395 kts 249°
2026-04-23 00:35 34.67813 -132.52510 34258 ft 394 kts 248°
2026-04-23 00:35 34.65667 -132.58649 34256 ft 395 kts 248°
2026-04-23 00:36 34.63524 -132.64757 34257 ft 395 kts 248°
2026-04-23 00:36 34.61365 -132.70895 34257 ft 395 kts 248°
2026-04-23 00:37 34.59215 -132.76999 34255 ft 394 kts 248°
2026-04-23 00:37 34.57060 -132.83112 34254 ft 395 kts 248°
2026-04-23 00:38 34.54908 -132.89210 34256 ft 396 kts 248°
2026-04-23 00:38 34.52735 -132.95348 34256 ft 395 kts 248°
2026-04-23 00:39 34.50572 -133.01436 34254 ft 394 kts 248°
2026-04-23 00:39 34.48405 -133.07530 34261 ft 395 kts 248°
2026-04-23 00:40 34.46244 -133.13597 34265 ft 394 kts 248°
2026-04-23 00:40 34.44067 -133.19708 34271 ft 395 kts 248°
2026-04-23 00:41 34.41891 -133.25812 34276 ft 394 kts 248°
2026-04-23 00:41 34.39720 -133.31874 34276 ft 394 kts 248°
2026-04-23 00:42 34.37525 -133.37991 34273 ft 395 kts 247°
2026-04-23 00:42 34.35337 -133.44073 34276 ft 396 kts 248°
2026-04-23 00:43 34.33144 -133.50159 34275 ft 394 kts 248°
2026-04-23 00:43 34.30950 -133.56232 34276 ft 396 kts 247°
2026-04-23 00:44 34.28744 -133.62332 34278 ft 396 kts 248°
2026-04-23 00:44 34.26538 -133.68430 34275 ft 395 kts 247°
2026-04-23 00:45 34.24324 -133.74532 34276 ft 395 kts 247°
2026-04-23 00:45 34.22115 -133.80615 34279 ft 396 kts 246°
2026-04-23 00:46 34.19903 -133.86693 34276 ft 396 kts 247°
2026-04-23 00:46 34.17692 -133.92744 34274 ft 396 kts 246°
2026-04-23 00:47 34.15469 -133.98825 34276 ft 395 kts 246°
2026-04-23 00:47 34.13260 -134.04862 34277 ft 395 kts 246°
2026-04-23 00:48 34.11034 -134.10930 34271 ft 395 kts 246°
2026-04-23 00:48 34.08793 -134.17027 34269 ft 396 kts 246°
2026-04-23 00:49 34.06557 -134.23093 34259 ft 396 kts 246°
2026-04-23 00:49 34.04324 -134.29134 34257 ft 395 kts 246°
2026-04-23 00:50 34.02074 -134.35228 34258 ft 396 kts 246°
2026-04-23 00:50 33.99835 -134.41278 34256 ft 396 kts 246°
2026-04-23 00:51 33.97601 -134.47313 34473 ft 393 kts 246°
2026-04-23 00:51 33.96495 -134.50288 34765 ft 391 kts 246°
2026-04-23 00:51 33.95374 -134.53296 35072 ft 389 kts 246°
2026-04-23 00:51 33.94267 -134.56273 35383 ft 386 kts 246°
2026-04-23 00:52 33.93188 -134.59172 35693 ft 383 kts 246°
2026-04-23 00:52 33.92096 -134.62105 36005 ft 379 kts 246°
2026-04-23 00:52 33.91017 -134.64996 36238 ft 378 kts 246°
2026-04-23 00:53 33.88845 -134.70830 36257 ft 385 kts 245°
2026-04-23 00:53 33.86647 -134.76721 36234 ft 391 kts 245°
2026-04-23 00:54 33.84392 -134.82733 36257 ft 396 kts 245°
2026-04-23 00:54 33.82106 -134.88818 36255 ft 397 kts 245°
2026-04-23 00:55 33.79817 -134.94902 36255 ft 396 kts 245°
2026-04-23 00:55 33.77556 -135.00915 36255 ft 397 kts 245°
2026-04-23 00:56 33.75259 -135.07002 36255 ft 398 kts 245°
2026-04-23 00:56 33.72970 -135.13058 36257 ft 398 kts 245°
2026-04-23 00:57 33.70699 -135.19052 36254 ft 397 kts 245°
2026-04-23 00:57 33.68409 -135.25081 36257 ft 398 kts 245°
2026-04-23 00:58 33.66113 -135.31128 36254 ft 397 kts 245°
2026-04-23 00:58 33.63826 -135.37135 36254 ft 398 kts 245°
2026-04-23 00:59 33.61542 -135.43121 36251 ft 397 kts 245°
2026-04-23 00:59 33.59238 -135.49142 36252 ft 397 kts 245°
2026-04-23 01:00 33.56939 -135.55139 36254 ft 396 kts 245°
2026-04-23 01:00 33.54640 -135.61147 36252 ft 396 kts 245°
2026-04-23 01:01 33.52348 -135.67116 36250 ft 397 kts 244°
2026-04-23 01:01 33.50042 -135.73103 36252 ft 396 kts 244°
2026-04-23 01:02 33.47728 -135.79095 36257 ft 397 kts 245°
2026-04-23 01:02 33.45414 -135.85072 36250 ft 397 kts 244°
2026-04-23 01:03 33.43095 -135.91061 36253 ft 397 kts 244°
2026-04-23 01:03 33.40769 -135.97064 36252 ft 396 kts 244°
2026-04-23 01:04 33.38468 -136.03008 36254 ft 397 kts 244°
2026-04-23 01:04 33.34979 -136.11977 36253 ft 396 kts 244°
2026-04-23 01:05 33.32657 -136.17926 36248 ft 396 kts 244°
2026-04-23 01:05 33.30337 -136.23853 36244 ft 395 kts 244°
2026-04-23 01:06 33.28003 -136.29810 36242 ft 396 kts 244°
2026-04-23 01:06 33.25677 -136.35747 36246 ft 396 kts 244°
2026-04-23 01:07 33.23332 -136.41715 36251 ft 395 kts 244°
2026-04-23 01:07 33.21003 -136.47632 36253 ft 397 kts 244°
2026-04-23 01:08 33.18656 -136.53583 36257 ft 396 kts 244°
2026-04-23 01:08 33.16316 -136.59502 36257 ft 396 kts 244°
2026-04-23 01:09 33.13953 -136.65474 36258 ft 397 kts 244°
2026-04-23 01:09 33.11615 -136.71367 36257 ft 397 kts 244°
2026-04-23 01:10 33.09256 -136.77313 36256 ft 397 kts 244°
2026-04-23 01:10 33.06907 -136.83215 36257 ft 396 kts 244°
2026-04-23 01:11 33.04534 -136.89172 36257 ft 397 kts 244°
2026-04-23 01:11 33.02175 -136.95093 36255 ft 396 kts 243°
2026-04-23 01:12 32.99824 -137.00981 36256 ft 396 kts 243°
2026-04-23 01:12 32.97443 -137.06926 36255 ft 395 kts 243°
2026-04-23 01:13 32.95085 -137.12822 36253 ft 395 kts 243°
2026-04-23 01:13 32.92720 -137.18704 36254 ft 396 kts 243°
2026-04-23 01:14 32.90341 -137.24600 36253 ft 396 kts 243°
2026-04-23 01:14 32.87970 -137.30467 36253 ft 396 kts 243°
2026-04-23 01:15 32.85590 -137.36359 36253 ft 397 kts 244°
2026-04-23 01:15 32.83216 -137.42235 36252 ft 395 kts 244°
2026-04-23 01:16 32.80839 -137.48108 36250 ft 395 kts 244°
2026-04-23 01:16 32.78458 -137.53983 36250 ft 395 kts 244°
2026-04-23 01:17 32.77266 -137.56920 35993 ft 393 kts 244°
2026-04-23 01:17 32.76085 -137.59828 36226 ft 392 kts 243°
2026-04-23 01:17 32.73704 -137.65681 36250 ft 397 kts 243°
2026-04-23 01:18 32.71284 -137.71611 36248 ft 397 kts 243°
2026-04-23 01:18 32.68886 -137.77473 36242 ft 396 kts 243°
2026-04-23 01:19 32.66483 -137.83351 36238 ft 396 kts 243°
2026-04-23 01:19 32.64075 -137.89232 36238 ft 397 kts 243°
2026-04-23 01:20 32.61660 -137.95117 36236 ft 397 kts 243°
2026-04-23 01:20 32.59265 -138.00940 36237 ft 396 kts 243°
2026-04-23 01:21 32.56839 -138.06822 36234 ft 395 kts 243°
2026-04-23 01:21 32.54438 -138.12633 36234 ft 396 kts 243°
2026-04-23 01:22 32.52010 -138.18512 36235 ft 395 kts 243°
2026-04-23 01:22 32.49594 -138.24352 36236 ft 396 kts 243°
2026-04-23 01:23 32.47193 -138.30144 36235 ft 396 kts 243°
2026-04-23 01:23 32.44757 -138.36006 36235 ft 397 kts 243°
2026-04-23 01:24 32.42307 -138.41891 36234 ft 397 kts 243°
2026-04-23 01:24 32.39879 -138.47717 36234 ft 396 kts 243°
2026-04-23 01:25 32.37444 -138.53551 36235 ft 398 kts 243°
2026-04-23 01:25 32.34998 -138.59398 36235 ft 396 kts 243°
2026-04-23 01:26 32.32548 -138.65231 36237 ft 396 kts 243°
2026-04-23 01:26 32.30098 -138.71062 36236 ft 395 kts 243°
2026-04-23 01:27 32.27657 -138.76843 36235 ft 396 kts 243°
2026-04-23 01:27 32.25203 -138.82675 36236 ft 397 kts 243°
2026-04-23 01:28 32.22753 -138.88501 36234 ft 397 kts 243°
2026-04-23 01:28 32.20296 -138.94322 36234 ft 396 kts 243°
2026-04-23 01:29 32.17833 -139.00131 36235 ft 396 kts 243°
2026-04-23 01:29 32.15383 -139.05919 36235 ft 397 kts 243°
2026-04-23 01:30 32.12926 -139.11717 36232 ft 395 kts 243°
2026-04-23 01:30 32.10448 -139.17546 36232 ft 398 kts 243°
2026-04-23 01:31 32.07979 -139.23338 36234 ft 396 kts 243°
2026-04-23 01:31 32.05511 -139.29126 36232 ft 397 kts 243°
2026-04-23 01:32 32.03030 -139.34935 36235 ft 396 kts 243°
2026-04-23 01:32 32.00552 -139.40738 36233 ft 397 kts 243°
2026-04-23 01:33 31.98065 -139.46545 36228 ft 396 kts 243°
2026-04-23 01:33 31.95583 -139.52322 36232 ft 397 kts 243°
2026-04-23 01:34 31.93084 -139.58139 36235 ft 397 kts 243°
2026-04-23 01:34 31.90596 -139.63907 36234 ft 398 kts 243°
2026-04-23 01:35 31.88096 -139.69704 36233 ft 398 kts 243°
2026-04-23 01:35 31.85604 -139.75472 36233 ft 397 kts 243°
2026-04-23 01:36 31.83094 -139.81276 36228 ft 397 kts 243°
2026-04-23 01:36 31.80596 -139.87044 36221 ft 399 kts 243°
2026-04-23 01:37 31.78077 -139.92845 36217 ft 398 kts 243°
2026-04-23 01:37 31.75573 -139.98601 36216 ft 396 kts 243°
2026-04-23 01:38 31.73062 -140.04376 36214 ft 398 kts 243°
2026-04-23 01:38 31.70535 -140.10167 36214 ft 399 kts 243°
2026-04-23 01:39 31.68013 -140.15935 36215 ft 399 kts 243°
2026-04-23 01:39 31.65495 -140.21687 36214 ft 400 kts 243°
2026-04-23 01:40 31.62950 -140.27498 36214 ft 399 kts 243°
2026-04-23 01:40 31.60418 -140.33266 36215 ft 399 kts 243°
2026-04-23 01:41 31.57888 -140.39024 36213 ft 400 kts 243°
2026-04-23 01:41 31.55336 -140.44820 36213 ft 401 kts 244°
2026-04-23 01:42 31.52782 -140.50609 36215 ft 401 kts 244°
2026-04-23 01:42 31.50231 -140.56392 36214 ft 401 kts 244°
2026-04-23 01:43 31.47679 -140.62160 36215 ft 400 kts 244°
2026-04-23 01:43 31.45119 -140.67935 36214 ft 401 kts 243°
2026-04-23 01:44 31.42550 -140.73724 36216 ft 401 kts 243°
2026-04-23 01:44 31.39979 -140.79509 36218 ft 401 kts 243°
2026-04-23 01:45 31.37409 -140.85283 36213 ft 402 kts 243°
2026-04-23 01:45 31.34832 -140.91063 36216 ft 400 kts 243°
2026-04-23 01:46 31.32258 -140.96820 36216 ft 401 kts 243°
2026-04-23 01:46 31.29688 -141.02562 36216 ft 401 kts 243°
2026-04-23 01:47 31.27094 -141.08359 36214 ft 401 kts 243°
2026-04-23 01:47 31.24511 -141.14125 36209 ft 402 kts 244°
2026-04-23 01:48 31.21925 -141.19878 36215 ft 402 kts 243°
2026-04-23 01:48 31.19313 -141.25678 36210 ft 402 kts 244°
2026-04-23 01:49 31.16721 -141.31426 36211 ft 402 kts 244°
2026-04-23 01:49 31.14102 -141.37224 36208 ft 403 kts 244°
2026-04-23 01:50 31.11506 -141.42956 36209 ft 402 kts 244°
2026-04-23 01:50 31.08890 -141.48730 36215 ft 403 kts 244°
2026-04-23 01:51 31.06264 -141.54513 36212 ft 403 kts 244°
2026-04-23 01:51 31.03640 -141.60283 36211 ft 403 kts 244°
2026-04-23 01:52 31.01013 -141.66052 36212 ft 404 kts 243°
2026-04-23 01:52 30.98380 -141.71826 36210 ft 403 kts 244°
2026-04-23 01:53 30.95737 -141.77612 36210 ft 404 kts 244°
2026-04-23 01:53 30.93110 -141.83360 36213 ft 405 kts 244°
2026-04-23 01:54 30.90452 -141.89162 36212 ft 405 kts 244°
2026-04-23 01:54 30.87809 -141.94922 36211 ft 405 kts 244°
2026-04-23 01:55 30.85154 -142.00705 36204 ft 406 kts 244°
2026-04-23 01:55 30.82483 -142.06514 36198 ft 407 kts 244°
2026-04-23 01:56 30.79814 -142.12305 36191 ft 407 kts 244°
2026-04-23 01:56 30.77137 -142.18103 36190 ft 406 kts 245°
2026-04-23 01:57 30.74461 -142.23892 36191 ft 406 kts 245°
2026-04-23 01:57 30.71793 -142.29656 36193 ft 407 kts 245°
2026-04-23 01:58 30.69110 -142.35446 36188 ft 408 kts 245°
2026-04-23 01:58 30.66423 -142.41228 36193 ft 409 kts 245°
2026-04-23 01:59 30.63729 -142.47020 36191 ft 409 kts 245°
2026-04-23 01:59 30.61022 -142.52834 36194 ft 410 kts 245°
2026-04-23 02:00 30.58312 -142.58641 36189 ft 408 kts 245°
2026-04-23 02:00 30.55617 -142.64409 36193 ft 410 kts 245°
2026-04-23 02:01 30.52892 -142.70233 36191 ft 411 kts 245°
2026-04-23 02:01 30.50177 -142.76028 36192 ft 411 kts 245°
2026-04-23 02:02 30.47457 -142.81828 36191 ft 410 kts 245°
2026-04-23 02:02 30.44719 -142.87659 36358 ft 413 kts 245°
2026-04-23 02:03 30.43353 -142.90562 36219 ft 409 kts 245°
2026-04-23 02:03 30.42013 -142.93401 36197 ft 404 kts 245°
2026-04-23 02:03 30.39294 -142.99170 36194 ft 409 kts 245°
2026-04-23 02:04 30.36583 -143.04919 36193 ft 409 kts 246°
2026-04-23 02:04 30.33866 -143.10663 36193 ft 408 kts 246°
2026-04-23 02:05 30.31121 -143.16460 36193 ft 409 kts 246°
2026-04-23 02:05 30.28393 -143.22209 36193 ft 408 kts 246°
2026-04-23 02:06 30.25673 -143.27937 36194 ft 407 kts 246°
2026-04-23 02:06 30.22939 -143.33690 36193 ft 409 kts 246°
2026-04-23 02:07 30.20207 -143.39427 36193 ft 409 kts 246°
2026-04-23 02:07 30.17467 -143.45172 36194 ft 409 kts 246°
2026-04-23 02:08 30.14717 -143.50929 36194 ft 409 kts 246°
2026-04-23 02:08 30.11978 -143.56650 36194 ft 410 kts 246°
2026-04-23 02:09 30.09223 -143.62401 36193 ft 410 kts 246°
2026-04-23 02:09 30.06465 -143.68149 36194 ft 410 kts 246°
2026-04-23 02:10 30.03689 -143.73926 36194 ft 410 kts 246°
2026-04-23 02:10 30.00927 -143.79666 36194 ft 411 kts 246°
2026-04-23 02:11 29.98145 -143.85439 36192 ft 411 kts 246°
2026-04-23 02:11 29.95375 -143.91179 36196 ft 411 kts 247°
2026-04-23 02:12 29.92606 -143.96907 36191 ft 412 kts 246°
2026-04-23 02:12 29.89817 -144.02669 36187 ft 411 kts 246°
2026-04-23 02:13 29.87025 -144.08426 36190 ft 410 kts 247°
2026-04-23 02:13 29.84249 -144.14145 36188 ft 411 kts 247°
2026-04-23 02:14 29.81467 -144.19871 36180 ft 412 kts 247°
2026-04-23 02:14 29.78675 -144.25607 36179 ft 411 kts 247°
2026-04-23 02:15 29.74487 -144.34190 36170 ft 411 kts 247°
2026-04-23 02:16 29.71687 -144.39920 36174 ft 411 kts 247°
2026-04-23 02:16 29.68894 -144.45628 36169 ft 410 kts 247°
2026-04-23 02:17 29.66098 -144.51334 36167 ft 410 kts 247°
2026-04-23 02:17 29.63305 -144.57031 36162 ft 410 kts 247°
2026-04-23 02:18 29.60510 -144.62714 36160 ft 409 kts 248°
2026-04-23 02:18 29.57708 -144.68411 36156 ft 411 kts 247°
2026-04-23 02:19 29.54908 -144.74095 36168 ft 410 kts 247°
2026-04-23 02:19 29.52091 -144.79802 36154 ft 410 kts 247°
2026-04-23 02:20 29.49273 -144.85504 36154 ft 410 kts 247°
2026-04-23 02:20 29.46458 -144.91196 36151 ft 411 kts 247°
2026-04-23 02:21 29.43630 -144.96901 36149 ft 411 kts 247°
2026-04-23 02:21 29.40824 -145.02548 36151 ft 411 kts 247°
2026-04-23 02:22 29.37986 -145.08258 36144 ft 412 kts 247°
2026-04-23 02:22 29.35162 -145.13931 36149 ft 411 kts 247°
2026-04-23 02:23 29.32330 -145.19614 36144 ft 413 kts 247°
2026-04-23 02:23 29.29480 -145.25320 36147 ft 411 kts 247°
2026-04-23 02:24 29.26642 -145.31000 36134 ft 411 kts 247°
2026-04-23 02:24 29.23823 -145.36627 36135 ft 410 kts 247°
2026-04-23 02:25 29.20984 -145.42294 36139 ft 411 kts 247°
2026-04-23 02:25 29.18128 -145.47987 36125 ft 410 kts 247°
2026-04-23 02:26 29.15296 -145.53622 36129 ft 411 kts 247°
2026-04-23 02:26 29.12436 -145.59305 36130 ft 412 kts 247°
2026-04-23 02:27 29.09578 -145.64970 36125 ft 412 kts 247°
2026-04-23 02:27 29.06727 -145.70618 36117 ft 411 kts 246°
2026-04-23 02:28 29.03866 -145.76276 36120 ft 412 kts 247°
2026-04-23 02:28 29.01023 -145.81895 36117 ft 411 kts 246°
2026-04-23 02:29 28.98151 -145.87558 36114 ft 410 kts 246°
2026-04-23 02:29 28.95287 -145.93202 36112 ft 411 kts 246°
2026-04-23 02:30 28.92433 -145.98820 36112 ft 411 kts 246°
2026-04-23 02:30 28.89574 -146.04437 36106 ft 411 kts 246°
2026-04-23 02:31 28.86700 -146.10074 36106 ft 410 kts 247°
2026-04-23 02:31 28.83839 -146.15680 36105 ft 411 kts 246°
2026-04-23 02:32 28.80953 -146.21326 36101 ft 410 kts 247°
2026-04-23 02:32 28.78090 -146.26929 36098 ft 412 kts 246°
2026-04-23 02:33 28.75211 -146.32548 36097 ft 412 kts 246°
2026-04-23 02:33 28.72317 -146.38184 36096 ft 412 kts 246°
2026-04-23 02:34 28.69431 -146.43803 36097 ft 413 kts 246°
2026-04-23 02:34 28.66540 -146.49416 36090 ft 411 kts 246°
2026-04-23 02:35 28.63637 -146.55052 36091 ft 414 kts 246°
2026-04-23 02:35 28.60723 -146.60700 36083 ft 413 kts 247°
2026-04-23 02:36 28.57817 -146.66318 36083 ft 412 kts 246°
2026-04-23 02:36 28.54928 -146.71904 36082 ft 412 kts 246°
2026-04-23 02:37 28.52015 -146.77531 36079 ft 414 kts 246°
2026-04-23 02:37 28.49076 -146.83202 36073 ft 414 kts 246°
2026-04-23 02:38 28.46184 -146.88766 36071 ft 412 kts 246°
2026-04-23 02:38 28.43258 -146.94392 36147 ft 414 kts 246°
2026-04-23 02:39 28.40327 -147.00017 35849 ft 412 kts 247°
2026-04-23 02:39 28.38883 -147.02785 36221 ft 415 kts 246°
2026-04-23 02:39 28.37411 -147.05609 36082 ft 414 kts 246°
2026-04-23 02:39 28.35940 -147.08423 35889 ft 409 kts 246°
2026-04-23 02:40 28.34497 -147.11179 36047 ft 410 kts 246°
2026-04-23 02:40 28.31563 -147.16800 36066 ft 416 kts 247°
2026-04-23 02:41 28.28635 -147.22394 36065 ft 414 kts 246°
2026-04-23 02:41 28.25678 -147.28021 36064 ft 415 kts 247°
2026-04-23 02:42 28.22730 -147.33637 36063 ft 413 kts 247°
2026-04-23 02:42 28.19803 -147.39206 36060 ft 413 kts 246°
2026-04-23 02:43 28.16863 -147.44792 36061 ft 414 kts 246°
2026-04-23 02:43 28.13917 -147.50380 36061 ft 412 kts 247°
2026-04-23 02:44 28.10976 -147.55955 36057 ft 414 kts 246°
2026-04-23 02:44 28.08032 -147.61533 36058 ft 415 kts 247°
2026-04-23 02:45 28.05069 -147.67129 36054 ft 415 kts 246°
2026-04-23 02:45 28.02100 -147.72734 36050 ft 414 kts 246°
2026-04-23 02:46 27.99164 -147.78262 36050 ft 414 kts 246°
2026-04-23 02:46 27.96199 -147.83844 36305 ft 414 kts 246°
2026-04-23 02:46 27.94713 -147.86639 36103 ft 415 kts 246°
2026-04-23 02:47 27.93229 -147.89427 36056 ft 411 kts 246°
2026-04-23 02:47 27.90277 -147.94966 36053 ft 412 kts 246°
2026-04-23 02:48 27.87339 -148.00475 36048 ft 411 kts 246°
2026-04-23 02:48 27.84372 -148.06029 36049 ft 411 kts 246°
2026-04-23 02:49 27.81406 -148.11583 36046 ft 412 kts 246°
2026-04-23 02:49 27.78463 -148.17078 36047 ft 411 kts 246°
2026-04-23 02:50 27.75487 -148.22626 36046 ft 412 kts 246°
2026-04-23 02:50 27.72517 -148.28162 36045 ft 414 kts 246°
2026-04-23 02:51 27.69556 -148.33670 36043 ft 413 kts 246°
2026-04-23 02:51 27.66570 -148.39217 36042 ft 413 kts 246°
2026-04-23 02:52 27.63573 -148.44777 36043 ft 415 kts 246°
2026-04-23 02:52 27.60585 -148.50311 36043 ft 415 kts 246°
2026-04-23 02:53 27.57591 -148.55849 36043 ft 414 kts 246°
2026-04-23 02:53 27.54608 -148.61363 36040 ft 414 kts 246°
2026-04-23 02:54 27.51602 -148.66917 36042 ft 417 kts 246°
2026-04-23 02:54 27.48575 -148.72496 36041 ft 415 kts 246°
2026-04-23 02:55 27.45566 -148.78035 36041 ft 415 kts 246°
2026-04-23 02:55 27.42556 -148.83571 36041 ft 416 kts 246°
2026-04-23 02:56 27.39546 -148.89094 36043 ft 416 kts 246°
2026-04-23 02:56 27.36544 -148.94601 36041 ft 414 kts 246°
2026-04-23 02:57 27.33519 -149.00139 36040 ft 414 kts 246°
2026-04-23 02:57 27.30501 -149.05667 36040 ft 417 kts 246°
2026-04-23 02:58 27.27475 -149.11197 36042 ft 417 kts 246°
2026-04-23 02:58 27.24430 -149.16754 36044 ft 417 kts 246°
2026-04-23 02:59 27.21378 -149.22316 36044 ft 416 kts 246°
2026-04-23 02:59 27.18344 -149.27838 36045 ft 417 kts 246°
2026-04-23 03:00 27.15312 -149.33350 36044 ft 417 kts 246°
2026-04-23 03:00 27.12268 -149.38876 36046 ft 417 kts 246°
2026-04-23 03:01 27.09207 -149.44428 36046 ft 416 kts 246°
2026-04-23 03:01 27.06161 -149.49945 36056 ft 418 kts 246°
2026-04-23 03:02 27.03113 -149.55460 36065 ft 416 kts 246°
2026-04-23 03:02 27.00061 -149.60974 36063 ft 415 kts 246°
2026-04-23 03:03 26.97036 -149.66431 36068 ft 416 kts 246°
2026-04-23 03:03 26.93979 -149.71945 36069 ft 416 kts 246°
2026-04-23 03:04 26.90921 -149.77446 36068 ft 415 kts 245°
2026-04-23 03:04 26.87878 -149.82916 36068 ft 414 kts 246°
2026-04-23 03:05 26.84827 -149.88399 36074 ft 417 kts 245°
2026-04-23 03:05 26.81757 -149.93901 36068 ft 415 kts 245°
2026-04-23 03:06 26.78715 -149.99348 36067 ft 415 kts 246°
2026-04-23 03:06 26.75850 -150.04478 36062 ft 416 kts 245°
2026-04-23 03:07 26.72774 -150.09975 36052 ft 417 kts 246°
2026-04-23 03:07 26.69703 -150.15456 36053 ft 417 kts 245°
2026-04-23 03:08 26.66635 -150.20918 36059 ft 415 kts 245°
2026-04-23 03:08 26.63574 -150.26370 36061 ft 416 kts 245°
2026-04-23 03:09 26.60490 -150.31859 36070 ft 417 kts 245°
2026-04-23 03:09 26.57400 -150.37346 36068 ft 418 kts 246°
2026-04-23 03:10 26.54310 -150.42821 36068 ft 416 kts 245°
2026-04-23 03:10 26.51216 -150.48306 36071 ft 418 kts 245°
2026-04-23 03:11 26.48136 -150.53751 36068 ft 417 kts 245°
2026-04-23 03:11 26.45041 -150.59225 36069 ft 418 kts 246°
2026-04-23 03:12 26.41940 -150.64693 36068 ft 417 kts 246°
2026-04-23 03:12 26.38847 -150.70148 36068 ft 419 kts 245°
2026-04-23 03:13 26.35719 -150.75650 36070 ft 418 kts 245°
2026-04-23 03:13 26.32632 -150.81087 36066 ft 418 kts 245°
2026-04-23 03:14 26.29508 -150.86574 36068 ft 417 kts 245°
2026-04-23 03:14 26.26414 -150.91994 36069 ft 415 kts 245°
2026-04-23 03:15 26.23303 -150.97452 36069 ft 418 kts 245°
2026-04-23 03:15 26.20183 -151.02918 36066 ft 417 kts 245°
2026-04-23 03:16 26.17071 -151.08356 36069 ft 417 kts 245°
2026-04-23 03:16 26.12367 -151.16569 36072 ft 419 kts 245°
2026-04-23 03:17 26.09219 -151.22052 36070 ft 418 kts 245°
2026-04-23 03:17 26.06101 -151.27483 36073 ft 420 kts 245°
2026-04-23 03:18 26.02970 -151.32935 36077 ft 419 kts 245°
2026-04-23 03:18 25.99821 -151.38396 36069 ft 418 kts 245°
2026-04-23 03:19 25.96690 -151.43826 36077 ft 419 kts 245°
2026-04-23 03:19 25.93554 -151.49257 36080 ft 417 kts 245°
2026-04-23 03:20 25.90427 -151.54671 36082 ft 419 kts 245°
2026-04-23 03:20 25.87283 -151.60103 36079 ft 418 kts 245°
2026-04-23 03:21 25.84133 -151.65552 36086 ft 422 kts 245°
2026-04-23 03:21 25.80957 -151.71030 36082 ft 420 kts 244°
2026-04-23 03:22 25.77812 -151.76442 36085 ft 420 kts 244°
2026-04-23 03:22 25.74642 -151.81900 36086 ft 422 kts 244°
2026-04-23 03:23 25.71446 -151.87389 36088 ft 421 kts 244°
2026-04-23 03:23 25.68288 -151.92809 36089 ft 421 kts 244°
2026-04-23 03:24 25.65107 -151.98262 36087 ft 422 kts 244°
2026-04-23 03:24 25.61924 -152.03714 36088 ft 421 kts 244°
2026-04-23 03:25 25.58721 -152.09193 36092 ft 423 kts 244°
2026-04-23 03:25 25.55535 -152.14632 36088 ft 421 kts 244°
2026-04-23 03:26 25.52345 -152.20071 36091 ft 421 kts 244°
2026-04-23 03:26 25.49157 -152.25510 36088 ft 423 kts 244°
2026-04-23 03:27 25.45948 -152.30975 36090 ft 423 kts 244°
2026-04-23 03:27 25.42737 -152.36436 36091 ft 424 kts 244°
2026-04-23 03:28 25.39528 -152.41884 36087 ft 423 kts 244°
2026-04-23 03:28 25.36315 -152.47333 36088 ft 424 kts 244°
2026-04-23 03:29 25.33102 -152.52776 36090 ft 424 kts 244°
2026-04-23 03:29 25.29896 -152.58202 36087 ft 424 kts 244°
2026-04-23 03:30 25.26672 -152.63654 36089 ft 424 kts 244°
2026-04-23 03:30 25.23447 -152.69098 36091 ft 425 kts 244°
2026-04-23 03:31 25.20201 -152.74573 36092 ft 425 kts 244°
2026-04-23 03:31 25.16973 -152.80011 36086 ft 425 kts 244°
2026-04-23 03:32 25.13734 -152.85465 36089 ft 425 kts 244°
2026-04-23 03:32 25.10484 -152.90930 36090 ft 427 kts 244°
2026-04-23 03:33 25.07237 -152.96379 36088 ft 426 kts 244°
2026-04-23 03:33 25.03990 -153.01822 36088 ft 425 kts 244°
2026-04-23 03:34 25.00725 -153.07292 36091 ft 426 kts 244°
2026-04-23 03:34 24.97480 -153.12724 36089 ft 426 kts 243°
2026-04-23 03:35 24.94209 -153.18192 36090 ft 426 kts 244°
2026-04-23 03:35 24.90963 -153.23613 36090 ft 426 kts 243°
2026-04-23 03:36 24.87689 -153.29069 36090 ft 427 kts 243°
2026-04-23 03:36 24.84411 -153.34532 36089 ft 427 kts 243°
2026-04-23 03:37 24.81157 -153.39941 36089 ft 427 kts 243°
2026-04-23 03:37 24.77880 -153.45389 36091 ft 428 kts 243°
2026-04-23 03:38 24.74579 -153.50871 36090 ft 428 kts 243°
2026-04-23 03:38 24.71299 -153.56308 36089 ft 429 kts 243°
2026-04-23 03:39 24.67990 -153.61787 36089 ft 429 kts 243°
2026-04-23 03:39 24.64686 -153.67253 36089 ft 430 kts 243°
2026-04-23 03:40 24.61390 -153.72697 36089 ft 428 kts 243°
2026-04-23 03:40 24.58085 -153.78152 36090 ft 430 kts 243°
2026-04-23 03:41 24.54782 -153.83600 36091 ft 430 kts 243°
2026-04-23 03:41 24.51464 -153.89066 36090 ft 430 kts 243°
2026-04-23 03:42 24.48145 -153.94525 36089 ft 430 kts 243°
2026-04-23 03:42 24.44828 -153.99973 36089 ft 430 kts 243°
2026-04-23 03:43 24.41521 -154.05399 36087 ft 429 kts 243°
2026-04-23 03:43 24.38183 -154.10878 36085 ft 432 kts 242°
2026-04-23 03:44 24.34848 -154.16339 36090 ft 431 kts 242°
2026-04-23 03:44 24.31522 -154.21773 36090 ft 432 kts 243°
2026-04-23 03:45 24.28190 -154.27214 36089 ft 431 kts 242°
2026-04-23 03:45 24.24822 -154.32671 36090 ft 430 kts 242°
2026-04-23 03:46 24.21486 -154.38060 36090 ft 431 kts 242°
2026-04-23 03:46 24.18115 -154.43501 36090 ft 432 kts 242°
2026-04-23 03:47 24.14733 -154.48956 36090 ft 432 kts 242°
2026-04-23 03:47 24.11372 -154.54372 36090 ft 433 kts 242°
2026-04-23 03:48 24.07983 -154.59825 36090 ft 432 kts 242°
2026-04-23 03:48 24.04606 -154.65254 36091 ft 433 kts 241°
2026-04-23 03:49 24.01212 -154.70706 36090 ft 433 kts 242°
2026-04-23 03:49 23.97808 -154.76167 36091 ft 434 kts 242°
2026-04-23 03:50 23.94406 -154.81619 36090 ft 433 kts 242°
2026-04-23 03:50 23.90997 -154.87074 36091 ft 433 kts 241°
2026-04-23 03:51 23.87606 -154.92500 36089 ft 433 kts 241°
2026-04-23 03:51 23.84216 -154.97919 36089 ft 433 kts 241°
2026-04-23 03:52 23.80823 -155.03334 36088 ft 434 kts 241°
2026-04-23 03:52 23.77406 -155.08781 36087 ft 434 kts 241°
2026-04-23 03:53 23.73985 -155.14230 36089 ft 435 kts 241°
2026-04-23 03:53 23.70586 -155.19638 36089 ft 434 kts 241°
2026-04-23 03:54 23.67166 -155.25072 36088 ft 435 kts 241°
2026-04-23 03:54 23.63744 -155.30502 36088 ft 434 kts 241°
2026-04-23 03:55 23.60330 -155.35915 36090 ft 435 kts 241°
2026-04-23 03:55 23.56889 -155.41319 36090 ft 436 kts 239°
2026-04-23 03:56 23.52654 -155.46133 36088 ft 450 kts 220°
2026-04-23 03:56 23.49923 -155.47801 36090 ft 459 kts 209°
2026-04-23 03:56 23.46876 -155.48964 36090 ft 465 kts 201°
2026-04-23 03:57 23.40507 -155.50532 36088 ft 470 kts 196°
2026-04-23 03:57 23.34071 -155.51805 36090 ft 469 kts 195°
2026-04-23 03:58 23.27599 -155.53052 36090 ft 470 kts 195°
2026-04-23 03:58 23.21174 -155.54311 36086 ft 469 kts 195°
2026-04-23 03:59 23.14723 -155.55597 36089 ft 469 kts 195°
2026-04-23 03:59 23.08257 -155.56895 36089 ft 469 kts 195°
2026-04-23 04:00 23.01825 -155.58191 36089 ft 468 kts 195°
2026-04-23 04:00 22.95405 -155.59485 36090 ft 469 kts 195°
2026-04-23 04:01 22.89062 -155.60763 36088 ft 469 kts 195°
2026-04-23 04:01 22.82565 -155.62071 36088 ft 469 kts 195°
2026-04-23 04:02 22.76108 -155.63370 36087 ft 470 kts 195°
2026-04-23 04:02 22.69608 -155.64674 36085 ft 470 kts 195°
2026-04-23 04:03 22.63125 -155.65976 36085 ft 469 kts 195°
2026-04-23 04:03 22.56676 -155.67268 36084 ft 468 kts 195°
2026-04-23 04:04 22.50224 -155.68561 36085 ft 469 kts 195°
2026-04-23 04:04 22.43765 -155.69855 36080 ft 471 kts 194°
2026-04-23 04:05 22.37298 -155.71146 36082 ft 469 kts 195°
2026-04-23 04:05 22.30836 -155.72435 36080 ft 469 kts 194°
2026-04-23 04:06 22.24396 -155.73718 36081 ft 470 kts 194°
2026-04-23 04:06 22.17933 -155.75006 36088 ft 470 kts 194°
2026-04-23 04:07 22.11472 -155.76294 36090 ft 469 kts 194°
2026-04-23 04:07 22.05003 -155.77582 36090 ft 471 kts 194°
2026-04-23 04:08 21.98496 -155.78873 36090 ft 470 kts 194°
2026-04-23 04:08 21.92042 -155.80154 36089 ft 470 kts 194°
2026-04-23 04:09 21.85568 -155.81439 36088 ft 470 kts 194°
2026-04-23 04:09 21.79117 -155.82718 36086 ft 470 kts 194°
2026-04-23 04:10 21.72735 -155.83983 36084 ft 470 kts 194°
2026-04-23 04:10 21.66279 -155.85261 36084 ft 469 kts 194°
2026-04-23 04:11 21.59835 -155.86536 36082 ft 470 kts 194°
2026-04-23 04:11 21.53370 -155.87810 36081 ft 470 kts 194°
2026-04-23 04:12 21.46927 -155.89081 36080 ft 470 kts 194°
2026-04-23 04:12 21.40500 -155.90347 36076 ft 470 kts 194°
2026-04-23 04:13 21.34020 -155.91623 36078 ft 471 kts 194°
2026-04-23 04:13 21.27539 -155.92897 36074 ft 469 kts 194°
2026-04-23 04:14 21.21090 -155.94165 36074 ft 469 kts 193°
2026-04-23 04:14 21.17906 -155.94791 35952 ft 467 kts 194°
2026-04-23 04:14 21.14707 -155.95416 35553 ft 461 kts 193°
2026-04-23 04:15 21.11508 -155.96042 34969 ft 459 kts 193°
2026-04-23 04:15 21.08357 -155.96660 34275 ft 459 kts 193°
2026-04-23 04:15 21.02103 -155.97887 33204 ft 451 kts 193°
2026-04-23 04:16 20.99003 -155.98496 32661 ft 448 kts 193°
2026-04-23 04:16 20.95959 -155.99094 32127 ft 446 kts 193°
2026-04-23 04:16 20.92902 -155.99692 31566 ft 444 kts 192°
2026-04-23 04:16 20.89848 -156.00290 31002 ft 442 kts 192°
2026-04-23 04:17 20.86837 -156.00830 30454 ft 440 kts 189°
2026-04-23 04:17 20.83813 -156.01158 30187 ft 431 kts 185°
2026-04-23 04:17 20.80787 -156.01323 29786 ft 425 kts 183°
2026-04-23 04:17 20.77829 -156.01405 29344 ft 421 kts 182°
2026-04-23 04:18 20.74889 -156.01459 28884 ft 417 kts 182°
2026-04-23 04:18 20.72002 -156.01509 28409 ft 414 kts 182°
2026-04-23 04:18 20.69114 -156.01566 27919 ft 411 kts 182°
2026-04-23 04:18 20.66270 -156.01631 27437 ft 408 kts 182°
2026-04-23 04:19 20.63437 -156.01703 26976 ft 405 kts 182°
2026-04-23 04:19 20.60616 -156.01781 26498 ft 402 kts 182°
2026-04-23 04:19 20.57803 -156.01863 26008 ft 399 kts 182°
2026-04-23 04:19 20.55017 -156.01945 25553 ft 396 kts 182°
2026-04-23 04:20 20.52255 -156.02029 25067 ft 394 kts 182°
2026-04-23 04:20 20.49509 -156.02113 24565 ft 392 kts 182°
2026-04-23 04:20 20.46780 -156.02196 24091 ft 390 kts 182°
2026-04-23 04:20 20.44089 -156.02278 23609 ft 388 kts 182°
2026-04-23 04:21 20.41370 -156.02362 23167 ft 384 kts 182°
2026-04-23 04:21 20.38684 -156.02444 22919 ft 375 kts 182°
2026-04-23 04:21 20.36105 -156.02522 22814 ft 362 kts 182°
2026-04-23 04:21 20.33624 -156.02597 22693 ft 351 kts 182°
2026-04-23 04:22 20.31172 -156.02672 22367 ft 352 kts 182°
2026-04-23 04:22 20.28703 -156.02750 21792 ft 356 kts 182°
2026-04-23 04:22 20.26186 -156.02828 21197 ft 360 kts 182°
2026-04-23 04:22 20.23666 -156.02907 20606 ft 364 kts 182°
2026-04-23 04:23 20.21108 -156.02985 20007 ft 367 kts 182°
2026-04-23 04:23 20.18539 -156.03064 19408 ft 370 kts 182°
2026-04-23 04:23 20.15936 -156.03143 18808 ft 372 kts 181°
2026-04-23 04:23 20.13370 -156.03221 18208 ft 370 kts 181°
2026-04-23 04:24 20.10759 -156.03301 17600 ft 366 kts 181°
2026-04-23 04:24 20.08243 -156.03365 16992 ft 362 kts 180°
2026-04-23 04:24 20.05735 -156.03342 16378 ft 358 kts 178°
2026-04-23 04:24 20.03258 -156.03259 15773 ft 355 kts 177°
2026-04-23 04:25 20.00765 -156.03160 15152 ft 352 kts 176°
2026-04-23 04:25 19.98334 -156.03065 14555 ft 349 kts 176°
2026-04-23 04:25 19.95908 -156.02982 13950 ft 346 kts 176°
2026-04-23 04:25 19.93502 -156.02907 13345 ft 344 kts 176°
2026-04-23 04:26 19.91098 -156.03020 12741 ft 345 kts 191°
2026-04-23 04:26 19.88929 -156.04048 12134 ft 343 kts 218°
2026-04-23 04:26 19.87421 -156.05949 11554 ft 336 kts 244°
2026-04-23 04:26 19.86746 -156.08289 11045 ft 327 kts 265°
2026-04-23 04:27 19.86753 -156.10672 10601 ft 319 kts 277°
2026-04-23 04:27 19.87292 -156.12947 10128 ft 310 kts 296°
2026-04-23 04:27 19.88571 -156.14726 9646 ft 303 kts 320°
2026-04-23 04:28 19.92315 -156.16530 8716 ft 294 kts 350°
2026-04-23 04:28 19.94350 -156.16629 8228 ft 289 kts
2026-04-23 04:28 19.96355 -156.16469 7748 ft 286 kts
2026-04-23 04:28 19.98350 -156.16278 7269 ft 283 kts
2026-04-23 04:29 20.00331 -156.16113 6783 ft 280 kts
2026-04-23 04:29 20.02279 -156.15936 6297 ft 277 kts
2026-04-23 04:29 20.04126 -156.15367 5815 ft 274 kts 28°
2026-04-23 04:29 20.05610 -156.14125 5334 ft 272 kts 49°
2026-04-23 04:30 20.06622 -156.12424 4849 ft 270 kts 66°
2026-04-23 04:30 20.07114 -156.10521 4465 ft 265 kts 82°
2026-04-23 04:30 20.07083 -156.08595 4101 ft 261 kts 98°
2026-04-23 04:30 20.06541 -156.06767 3733 ft 257 kts 114°
2026-04-23 04:31 20.05571 -156.05176 3366 ft 254 kts 129°
2026-04-23 04:31 20.04265 -156.03906 3028 ft 251 kts 143°
2026-04-23 04:31 20.02761 -156.03055 2967 ft 237 kts 157°
2026-04-23 04:31 20.01202 -156.02591 2960 ft 223 kts 168°
2026-04-23 04:32 19.99715 -156.02452 2963 ft 207 kts 179°
2026-04-23 04:32 19.98310 -156.02518 2961 ft 195 kts 182°
2026-04-23 04:32 19.96942 -156.02615 2960 ft 195 kts 182°
2026-04-23 04:32 19.95584 -156.02705 2961 ft 194 kts 182°
2026-04-23 04:33 19.94223 -156.02788 2964 ft 195 kts 182°
2026-04-23 04:33 19.92857 -156.02875 2972 ft 192 kts 182°
2026-04-23 04:33 19.91559 -156.02982 2930 ft 179 kts 184°
2026-04-23 04:33 19.90316 -156.03095 2710 ft 179 kts 184°
2026-04-23 04:34 19.89058 -156.03209 2423 ft 180 kts 184°
2026-04-23 04:34 19.87807 -156.03322 2152 ft 180 kts 184°
2026-04-23 04:34 19.86571 -156.03432 1861 ft 173 kts 184°
2026-04-23 04:34 19.85367 -156.03540 1567 ft 167 kts 184°
2026-04-23 04:35 19.84237 -156.03641 1454 ft 157 kts 184°
2026-04-23 04:35 19.83141 -156.03738 1493 ft 156 kts 184°
2026-04-23 04:35 19.82071 -156.03836 1461 ft 150 kts 185°
2026-04-23 04:35 19.81019 -156.03978 1335 ft 147 kts 187°
2026-04-23 04:36 19.80005 -156.04091 1078 ft 145 kts 184°
2026-04-23 04:36 19.79005 -156.04150 807 ft 143 kts 183°
2026-04-23 04:36 19.78011 -156.04208 590 ft 140 kts 185°
2026-04-23 04:36 19.77022 -156.04292 435 ft 144 kts 186°
2026-04-23 04:37 19.76018 -156.04378 263 ft 145 kts 186°
2026-04-23 04:37 19.75008 -156.04465 86 ft 140 kts 187°
2026-04-23 04:37 19.74105 -156.04549 70 ft 116 kts 187°
2026-04-23 04:37 19.73473 -156.04607 69 ft 67 kts 185°
2026-04-23 04:38 19.73145 -156.04634 68 ft 30 kts 185°
2026-04-23 04:38 19.72962 -156.04646 68 ft 24 kts 181°
2026-04-23 04:38 19.72796 -156.04614 67 ft 23 kts 162°
2026-04-23 04:38 19.72663 -156.04538 69 ft 19 kts 120°
2026-04-23 04:39 19.72670 -156.04428 73 ft 13 kts 36°
2026-04-23 04:39 19.72765 -156.04408 75 ft 17 kts
2026-04-23 04:39 19.72902 -156.04396 75 ft 19 kts
2026-04-23 04:39 19.73049 -156.04382 75 ft 22 kts
2026-04-23 04:40 19.73201 -156.04369 76 ft 21 kts
2026-04-23 04:40 19.73348 -156.04356 75 ft 20 kts
2026-04-23 04:40 19.73483 -156.04344 75 ft 18 kts
2026-04-23 04:40 19.73610 -156.04334 75 ft 16 kts
2026-04-23 04:41 19.73656 -156.04312 74 ft 3 kts 74°
2026-04-23 04:41 19.73659 -156.04303 75 ft 0 kts 80°
2026-04-23 04:41 19.73660 -156.04285 76 ft 5 kts 90°
2026-04-23 04:41 19.73657 -156.04239 78 ft 4 kts 95°
2026-04-23 04:42 19.73657 -156.04231 78 ft 0 kts 96°
2026-04-23 04:42 19.73656 -156.04225 79 ft 0 kts 95°
2026-04-23 04:42 19.73656 -156.04224 79 ft 0 kts 95°